Time,TemperatureF,DewpointF,PressureIn,WindDirection,WindDirectionDegrees,WindSpeedMPH,WindSpeedGustMPH,Humidity,HourlyPrecipIn,Conditions,Clouds,dailyrainin,SoftwareType,DateUTC
2013-06-29 00:04:00,65.7,64.2,29.54,WSW,248,2.0,-999.0,95,0.00,,,0.01,Wunderground v.1.15,2013-06-29 04:04:00,
2013-06-29 00:09:00,65.7,64.2,29.54,WSW,248,2.0,-999.0,95,0.00,,,0.01,Wunderground v.1.15,2013-06-29 04:09:00,
2013-06-29 00:14:00,65.7,64.2,29.54,WSW,248,2.0,-999.0,95,0.00,,,0.01,Wunderground v.1.15,2013-06-29 04:14:00,
2013-06-29 00:19:00,65.7,64.2,29.53,WSW,248,2.0,-999.0,95,0.00,,,0.01,Wunderground v.1.15,2013-06-29 04:19:00,
2013-06-29 00:24:00,65.7,64.2,29.53,WSW,248,2.0,-999.0,95,0.00,,,0.01,Wunderground v.1.15,2013-06-29 04:24:00,
2013-06-29 00:29:00,65.5,63.7,29.53,WSW,248,2.0,-999.0,94,0.00,,,0.01,Wunderground v.1.15,2013-06-29 04:29:00,
2013-06-29 00:34:00,65.5,63.7,29.53,WSW,248,2.0,-999.0,94,0.00,,,0.01,Wunderground v.1.15,2013-06-29 04:34:00,
2013-06-29 00:39:00,65.2,63.7,29.53,WSW,248,2.0,-999.0,95,0.00,,,0.01,Wunderground v.1.15,2013-06-29 04:39:00,
2013-06-29 00:44:00,65.2,63.7,29.53,WSW,248,2.0,-999.0,95,0.00,,,0.01,Wunderground v.1.15,2013-06-29 04:44:00,
2013-06-29 00:49:00,65.1,63.6,29.53,WSW,248,1.0,-999.0,95,0.00,,,0.01,Wunderground v.1.15,2013-06-29 04:49:00,
2013-06-29 00:54:00,65.1,63.6,29.53,WSW,248,1.0,-999.0,95,0.00,,,0.01,Wunderground v.1.15,2013-06-29 04:54:00,
2013-06-29 00:59:00,64.8,63.3,29.52,WSW,248,1.0,-999.0,95,0.00,,,0.01,Wunderground v.1.15,2013-06-29 04:59:00,
2013-06-29 01:04:00,64.8,63.3,29.52,WSW,248,1.0,-999.0,95,0.00,,,0.01,Wunderground v.1.15,2013-06-29 05:04:00,
2013-06-29 01:09:00,64.5,63.3,29.53,SW,225,0.0,-999.0,96,0.00,,,0.01,Wunderground v.1.15,2013-06-29 05:09:00,
2013-06-29 01:14:00,64.5,63.3,29.53,SW,225,0.0,-999.0,96,0.00,,,0.01,Wunderground v.1.15,2013-06-29 05:14:00,
2013-06-29 01:19:00,64.3,63.1,29.52,WSW,248,0.0,-999.0,96,0.00,,,0.01,Wunderground v.1.15,2013-06-29 05:19:00,
2013-06-29 01:24:00,64.3,63.1,29.52,WSW,248,0.0,-999.0,96,0.00,,,0.01,Wunderground v.1.15,2013-06-29 05:24:00,
2013-06-29 01:29:00,64.1,62.9,29.52,SW,225,0.0,-999.0,96,0.00,,,0.01,Wunderground v.1.15,2013-06-29 05:29:00,
2013-06-29 01:34:00,64.1,62.9,29.52,SW,225,0.0,-999.0,96,0.00,,,0.01,Wunderground v.1.15,2013-06-29 05:34:00,
2013-06-29 01:39:00,64.0,63.1,29.52,SW,225,1.0,-999.0,97,0.00,,,0.01,Wunderground v.1.15,2013-06-29 05:39:00,
2013-06-29 01:44:00,64.0,63.1,29.52,SW,225,1.0,-999.0,97,0.00,,,0.01,Wunderground v.1.15,2013-06-29 05:44:00,
2013-06-29 01:49:00,64.0,63.1,29.52,SW,225,1.0,-999.0,97,0.00,,,0.01,Wunderground v.1.15,2013-06-29 05:49:00,
2013-06-29 01:54:00,64.0,63.1,29.52,SW,225,1.0,-999.0,97,0.00,,,0.01,Wunderground v.1.15,2013-06-29 05:54:00,
2013-06-29 01:59:00,64.0,63.1,29.51,SW,225,1.0,-999.0,97,0.00,,,0.01,Wunderground v.1.15,2013-06-29 05:59:00,
2013-06-29 02:04:00,64.0,63.1,29.51,SW,225,1.0,-999.0,97,0.00,,,0.01,Wunderground v.1.15,2013-06-29 06:04:00,
2013-06-29 02:09:00,64.2,63.3,29.51,SW,225,2.0,-999.0,97,0.00,,,0.01,Wunderground v.1.15,2013-06-29 06:09:00,
2013-06-29 02:14:00,64.2,63.3,29.51,SW,225,2.0,-999.0,97,0.00,,,0.01,Wunderground v.1.15,2013-06-29 06:14:00,
2013-06-29 02:19:00,64.3,63.4,29.51,SW,225,2.0,-999.0,97,0.00,,,0.01,Wunderground v.1.15,2013-06-29 06:19:00,
2013-06-29 02:24:00,64.3,63.4,29.51,SW,225,2.0,-999.0,97,0.00,,,0.01,Wunderground v.1.15,2013-06-29 06:24:00,
2013-06-29 02:29:00,64.5,63.6,29.51,SW,225,2.0,-999.0,97,0.00,,,0.01,Wunderground v.1.15,2013-06-29 06:29:00,
2013-06-29 02:34:00,64.5,63.6,29.51,SW,225,2.0,-999.0,97,0.00,,,0.01,Wunderground v.1.15,2013-06-29 06:34:00,
2013-06-29 02:39:00,64.5,63.6,29.51,SW,225,1.0,-999.0,97,0.00,,,0.01,Wunderground v.1.15,2013-06-29 06:39:00,
2013-06-29 02:44:00,64.5,63.6,29.51,SW,225,1.0,-999.0,97,0.00,,,0.01,Wunderground v.1.15,2013-06-29 06:44:00,
2013-06-29 02:49:00,64.5,63.6,29.51,SW,225,2.0,-999.0,97,0.00,,,0.01,Wunderground v.1.15,2013-06-29 06:49:00,
2013-06-29 02:54:00,64.5,63.6,29.51,SW,225,2.0,-999.0,97,0.00,,,0.01,Wunderground v.1.15,2013-06-29 06:54:00,
2013-06-29 02:59:00,64.4,63.5,29.51,SW,225,2.0,-999.0,97,0.00,,,0.01,Wunderground v.1.15,2013-06-29 06:59:00,
2013-06-29 03:04:00,64.4,63.5,29.51,SW,225,2.0,-999.0,97,0.00,,,0.01,Wunderground v.1.15,2013-06-29 07:04:00,
2013-06-29 03:09:00,64.2,63.3,29.51,WSW,248,0.0,-999.0,97,0.00,,,0.01,Wunderground v.1.15,2013-06-29 07:09:00,
2013-06-29 03:14:00,64.2,63.3,29.51,WSW,248,0.0,-999.0,97,0.00,,,0.01,Wunderground v.1.15,2013-06-29 07:14:00,
2013-06-29 03:19:00,64.0,63.1,29.51,WSW,248,0.0,-999.0,97,0.00,,,0.01,Wunderground v.1.15,2013-06-29 07:19:00,
2013-06-29 03:24:00,64.0,63.1,29.51,WSW,248,0.0,-999.0,97,0.00,,,0.01,Wunderground v.1.15,2013-06-29 07:24:00,
2013-06-29 03:29:00,63.8,62.9,29.51,SW,225,1.0,-999.0,97,0.00,,,0.01,Wunderground v.1.15,2013-06-29 07:29:00,
2013-06-29 03:34:00,63.8,62.9,29.51,SW,225,1.0,-999.0,97,0.00,,,0.01,Wunderground v.1.15,2013-06-29 07:34:00,
2013-06-29 03:39:00,63.9,63.0,29.51,SW,225,1.0,-999.0,97,0.00,,,0.01,Wunderground v.1.15,2013-06-29 07:39:00,
2013-06-29 03:44:00,63.9,63.0,29.51,SW,225,1.0,-999.0,97,0.00,,,0.01,Wunderground v.1.15,2013-06-29 07:44:00,
2013-06-29 03:49:00,63.8,63.2,29.51,SW,225,2.0,-999.0,98,0.00,,,0.01,Wunderground v.1.15,2013-06-29 07:49:00,
2013-06-29 03:54:00,63.8,63.2,29.51,SW,225,2.0,-999.0,98,0.00,,,0.01,Wunderground v.1.15,2013-06-29 07:54:00,
2013-06-29 03:59:00,63.8,63.2,29.51,WSW,248,2.0,-999.0,98,0.00,,,0.01,Wunderground v.1.15,2013-06-29 07:59:00,
2013-06-29 04:04:00,63.8,63.2,29.51,WSW,248,2.0,-999.0,98,0.00,,,0.01,Wunderground v.1.15,2013-06-29 08:04:00,
2013-06-29 04:09:00,63.7,63.1,29.51,WSW,248,1.0,-999.0,98,0.00,,,0.01,Wunderground v.1.15,2013-06-29 08:09:00,
2013-06-29 04:14:00,63.7,63.1,29.51,WSW,248,1.0,-999.0,98,0.00,,,0.01,Wunderground v.1.15,2013-06-29 08:14:00,
2013-06-29 04:19:00,63.4,62.8,29.51,West,270,0.0,-999.0,98,0.00,,,0.01,Wunderground v.1.15,2013-06-29 08:19:00,
2013-06-29 04:24:00,63.4,62.8,29.51,West,270,0.0,-999.0,98,0.00,,,0.01,Wunderground v.1.15,2013-06-29 08:24:00,
2013-06-29 04:29:00,63.3,62.7,29.51,SSW,203,0.0,-999.0,98,0.00,,,0.01,Wunderground v.1.15,2013-06-29 08:29:00,
2013-06-29 04:34:00,63.3,62.7,29.51,SSW,203,0.0,-999.0,98,0.00,,,0.01,Wunderground v.1.15,2013-06-29 08:34:00,
2013-06-29 04:39:00,63.2,62.6,29.51,WSW,248,0.0,-999.0,98,0.00,,,0.01,Wunderground v.1.15,2013-06-29 08:39:00,
2013-06-29 04:44:00,63.2,62.6,29.51,WSW,248,0.0,-999.0,98,0.00,,,0.01,Wunderground v.1.15,2013-06-29 08:44:00,
2013-06-29 04:49:00,63.0,62.4,29.51,N/A,-737280,0.0,-999.0,98,0.00,,,0.01,Wunderground v.1.15,2013-06-29 08:49:00,
2013-06-29 04:54:00,63.0,62.4,29.51,N/A,-737280,0.0,-999.0,98,0.00,,,0.01,Wunderground v.1.15,2013-06-29 08:54:00,
2013-06-29 04:59:00,62.8,62.2,29.51,WSW,248,0.0,-999.0,98,0.00,,,0.01,Wunderground v.1.15,2013-06-29 08:59:00,
2013-06-29 05:04:00,62.8,62.2,29.51,WSW,248,0.0,-999.0,98,0.00,,,0.01,Wunderground v.1.15,2013-06-29 09:04:00,
2013-06-29 05:09:00,62.5,61.9,29.51,N/A,-737280,0.0,-999.0,98,0.00,,,0.01,Wunderground v.1.15,2013-06-29 09:09:00,
2013-06-29 05:14:00,62.5,61.9,29.51,N/A,-737280,0.0,-999.0,98,0.00,,,0.01,Wunderground v.1.15,2013-06-29 09:14:00,
2013-06-29 05:19:00,62.2,61.6,29.51,N/A,-737280,0.0,-999.0,98,0.00,,,0.01,Wunderground v.1.15,2013-06-29 09:19:00,
2013-06-29 05:24:00,62.2,61.6,29.51,N/A,-737280,0.0,-999.0,98,0.00,,,0.01,Wunderground v.1.15,2013-06-29 09:24:00,
2013-06-29 05:29:00,62.0,61.4,29.51,N/A,-737280,0.0,-999.0,98,0.00,,,0.01,Wunderground v.1.15,2013-06-29 09:29:00,
2013-06-29 05:34:00,62.0,61.4,29.51,N/A,-737280,0.0,-999.0,98,0.00,,,0.01,Wunderground v.1.15,2013-06-29 09:34:00,
2013-06-29 05:39:00,62.0,61.4,29.51,WSW,248,0.0,-999.0,98,0.00,,,0.01,Wunderground v.1.15,2013-06-29 09:39:00,
2013-06-29 05:44:00,62.0,61.4,29.51,WSW,248,0.0,-999.0,98,0.00,,,0.01,Wunderground v.1.15,2013-06-29 09:44:00,
2013-06-29 05:49:00,61.8,61.2,29.51,WSW,248,0.0,-999.0,98,0.00,,,0.01,Wunderground v.1.15,2013-06-29 09:49:00,
2013-06-29 05:54:00,61.8,61.2,29.51,WSW,248,0.0,-999.0,98,0.00,,,0.01,Wunderground v.1.15,2013-06-29 09:54:00,
2013-06-29 05:59:00,61.7,61.1,29.52,N/A,-737280,0.0,-999.0,98,0.00,,,0.01,Wunderground v.1.15,2013-06-29 09:59:00,
2013-06-29 06:04:00,61.7,61.1,29.52,N/A,-737280,0.0,-999.0,98,0.00,,,0.01,Wunderground v.1.15,2013-06-29 10:04:00,
2013-06-29 06:09:00,61.7,61.1,29.52,SW,225,0.0,-999.0,98,0.00,,,0.01,Wunderground v.1.15,2013-06-29 10:09:00,
2013-06-29 06:14:00,61.7,61.1,29.52,SW,225,0.0,-999.0,98,0.00,,,0.01,Wunderground v.1.15,2013-06-29 10:14:00,
2013-06-29 06:19:00,61.7,61.1,29.52,SW,225,0.0,-999.0,98,0.00,,,0.01,Wunderground v.1.15,2013-06-29 10:19:00,
2013-06-29 06:24:00,61.7,61.1,29.52,SW,225,0.0,-999.0,98,0.00,,,0.01,Wunderground v.1.15,2013-06-29 10:24:00,
2013-06-29 06:29:00,61.5,60.9,29.52,N/A,-737280,0.0,-999.0,98,0.00,,,0.01,Wunderground v.1.15,2013-06-29 10:29:00,
2013-06-29 06:34:00,61.5,60.9,29.52,N/A,-737280,0.0,-999.0,98,0.00,,,0.01,Wunderground v.1.15,2013-06-29 10:34:00,
2013-06-29 06:39:00,61.5,60.9,29.52,N/A,-737280,0.0,-999.0,98,0.00,,,0.01,Wunderground v.1.15,2013-06-29 10:39:00,
2013-06-29 06:44:00,61.5,60.9,29.52,N/A,-737280,0.0,-999.0,98,0.00,,,0.01,Wunderground v.1.15,2013-06-29 10:44:00,
2013-06-29 06:49:00,61.8,61.5,29.52,SW,225,0.0,-999.0,99,0.00,,,0.01,Wunderground v.1.15,2013-06-29 10:49:00,
2013-06-29 06:54:00,61.8,61.5,29.52,SW,225,0.0,-999.0,99,0.00,,,0.01,Wunderground v.1.15,2013-06-29 10:54:00,
2013-06-29 06:59:00,62.4,62.1,29.52,WNW,293,0.0,-999.0,99,0.01,,,0.01,Wunderground v.1.15,2013-06-29 10:59:00,
2013-06-29 07:04:00,62.4,62.1,29.52,WNW,293,0.0,-999.0,99,0.01,,,0.01,Wunderground v.1.15,2013-06-29 11:04:00,
2013-06-29 07:09:00,63.0,62.7,29.52,NW,315,1.0,-999.0,99,0.01,,,0.01,Wunderground v.1.15,2013-06-29 11:09:00,
2013-06-29 07:14:00,63.0,62.7,29.52,NW,315,1.0,-999.0,99,0.01,,,0.01,Wunderground v.1.15,2013-06-29 11:14:00,
2013-06-29 07:19:00,63.3,63.0,29.52,WNW,293,1.0,-999.0,99,0.01,,,0.01,Wunderground v.1.15,2013-06-29 11:19:00,
2013-06-29 07:24:00,63.3,63.0,29.52,WNW,293,1.0,-999.0,99,0.01,,,0.01,Wunderground v.1.15,2013-06-29 11:24:00,
2013-06-29 07:29:00,63.3,63.0,29.53,WNW,293,2.0,-999.0,99,0.01,,,0.01,Wunderground v.1.15,2013-06-29 11:29:00,
2013-06-29 07:34:00,63.3,63.0,29.53,WNW,293,2.0,-999.0,99,0.01,,,0.01,Wunderground v.1.15,2013-06-29 11:34:00,
2013-06-29 07:39:00,63.5,63.2,29.53,WNW,293,0.0,-999.0,99,0.01,,,0.01,Wunderground v.1.15,2013-06-29 11:39:00,
2013-06-29 07:44:00,63.5,63.2,29.53,WNW,293,0.0,-999.0,99,0.01,,,0.01,Wunderground v.1.15,2013-06-29 11:44:00,
2013-06-29 07:49:00,63.4,63.1,29.53,WNW,293,1.0,-999.0,99,0.01,,,0.01,Wunderground v.1.15,2013-06-29 11:49:00,
2013-06-29 07:54:00,63.4,63.1,29.53,WNW,293,1.0,-999.0,99,0.01,,,0.01,Wunderground v.1.15,2013-06-29 11:54:00,
2013-06-29 07:59:00,63.5,63.2,29.53,West,270,1.0,-999.0,99,0.00,,,0.01,Wunderground v.1.15,2013-06-29 11:59:00,
2013-06-29 08:04:00,63.5,63.2,29.53,West,270,1.0,-999.0,99,0.00,,,0.01,Wunderground v.1.15,2013-06-29 12:04:00,
2013-06-29 08:09:00,63.7,63.4,29.53,WNW,293,1.0,-999.0,99,0.00,,,0.01,Wunderground v.1.15,2013-06-29 12:09:00,
2013-06-29 08:14:00,63.7,63.4,29.53,WNW,293,1.0,-999.0,99,0.00,,,0.01,Wunderground v.1.15,2013-06-29 12:14:00,
2013-06-29 08:19:00,63.7,63.4,29.53,North,0,1.0,-999.0,99,0.00,,,0.01,Wunderground v.1.15,2013-06-29 12:19:00,
2013-06-29 08:24:00,63.7,63.4,29.53,North,0,1.0,-999.0,99,0.00,,,0.01,Wunderground v.1.15,2013-06-29 12:24:00,
2013-06-29 08:29:00,63.9,63.6,29.53,West,270,0.0,-999.0,99,0.00,,,0.01,Wunderground v.1.15,2013-06-29 12:29:00,
2013-06-29 08:34:00,63.9,63.6,29.53,West,270,0.0,-999.0,99,0.00,,,0.01,Wunderground v.1.15,2013-06-29 12:34:00,
2013-06-29 08:39:00,63.7,63.4,29.54,NNE,23,1.0,-999.0,99,0.00,,,0.01,Wunderground v.1.15,2013-06-29 12:39:00,
2013-06-29 08:44:00,63.7,63.4,29.54,NNE,23,1.0,-999.0,99,0.00,,,0.01,Wunderground v.1.15,2013-06-29 12:44:00,
2013-06-29 08:49:00,64.1,63.8,29.54,North,0,0.0,-999.0,99,0.00,,,0.01,Wunderground v.1.15,2013-06-29 12:49:00,
2013-06-29 08:54:00,64.1,63.8,29.54,North,0,0.0,-999.0,99,0.00,,,0.01,Wunderground v.1.15,2013-06-29 12:54:00,
2013-06-29 08:59:00,64.4,64.1,29.54,NW,315,0.0,-999.0,99,0.00,,,0.01,Wunderground v.1.15,2013-06-29 12:59:00,
2013-06-29 09:04:00,64.4,64.1,29.54,NW,315,0.0,-999.0,99,0.00,,,0.01,Wunderground v.1.15,2013-06-29 13:04:00,
2013-06-29 09:09:00,65.1,64.8,29.54,NE,45,1.0,-999.0,99,0.00,,,0.01,Wunderground v.1.15,2013-06-29 13:09:00,
2013-06-29 09:14:00,65.1,64.8,29.54,NE,45,1.0,-999.0,99,0.00,,,0.01,Wunderground v.1.15,2013-06-29 13:14:00,
2013-06-29 09:19:00,66.2,65.6,29.54,West,270,1.0,-999.0,98,0.00,,,0.01,Wunderground v.1.15,2013-06-29 13:19:00,
2013-06-29 09:24:00,66.2,65.6,29.54,West,270,1.0,-999.0,98,0.00,,,0.01,Wunderground v.1.15,2013-06-29 13:24:00,
2013-06-29 09:29:00,66.3,65.4,29.54,SW,225,1.0,-999.0,97,0.00,,,0.01,Wunderground v.1.15,2013-06-29 13:29:00,
2013-06-29 09:34:00,66.3,65.4,29.54,SW,225,1.0,-999.0,97,0.00,,,0.01,Wunderground v.1.15,2013-06-29 13:34:00,
2013-06-29 09:39:00,66.7,65.8,29.54,WSW,248,1.0,-999.0,97,0.00,,,0.01,Wunderground v.1.15,2013-06-29 13:39:00,
2013-06-29 09:44:00,66.7,65.8,29.54,WSW,248,1.0,-999.0,97,0.00,,,0.01,Wunderground v.1.15,2013-06-29 13:44:00,
2013-06-29 09:49:00,67.6,66.4,29.54,SSW,210,0.0,1.0,96,0.00,,,0.01,Wunderground v.1.15,2013-06-29 13:49:00,
2013-06-29 09:54:00,67.6,66.1,29.54,SSW,203,0.0,-999.0,95,0.00,,,0.01,Wunderground v.1.15,2013-06-29 13:54:00,
2013-06-29 09:56:00,68.2,66.7,29.55,West,262,1.0,1.0,95,0.00,,,0.01,Wunderground v.1.15,2013-06-29 13:56:00,
2013-06-29 09:59:00,68.1,66.3,29.55,WSW,248,1.0,-999.0,94,0.00,,,0.01,Wunderground v.1.15,2013-06-29 13:59:00,
2013-06-29 10:02:00,68.1,66.0,29.54,SW,225,1.0,1.0,93,0.00,,,0.01,Wunderground v.1.15,2013-06-29 14:02:00,
2013-06-29 10:04:00,68.1,66.3,29.55,WSW,248,1.0,-999.0,94,0.00,,,0.01,Wunderground v.1.15,2013-06-29 14:04:00,
2013-06-29 10:08:00,68.1,66.0,29.54,West,273,1.0,1.0,93,0.00,,,0.01,Wunderground v.1.15,2013-06-29 14:08:00,
2013-06-29 10:09:00,68.2,66.1,29.54,West,270,0.0,-999.0,93,0.00,,,0.01,Wunderground v.1.15,2013-06-29 14:09:00,
2013-06-29 10:14:00,68.6,66.5,29.55,East,94,0.0,1.0,93,0.00,,,0.01,Wunderground v.1.15,2013-06-29 14:14:00,
2013-06-29 10:19:00,69.1,66.7,29.54,East,90,0.0,-999.0,92,0.00,,,0.01,Wunderground v.1.15,2013-06-29 14:19:00,
2013-06-29 10:20:00,69.1,66.7,29.54,NNE,32,0.0,0.0,92,0.00,,,0.01,Wunderground v.1.15,2013-06-29 14:20:00,
2013-06-29 10:24:00,69.1,66.7,29.54,East,90,0.0,-999.0,92,0.00,,,0.01,Wunderground v.1.15,2013-06-29 14:24:00,
2013-06-29 10:26:00,69.5,67.1,29.54,SW,215,1.0,2.0,92,0.00,,,0.01,Wunderground v.1.15,2013-06-29 14:26:00,
2013-06-29 10:34:00,70.7,67.6,29.54,SSW,203,1.0,2.0,90,0.00,,,0.01,Wunderground v.1.15,2013-06-29 14:34:00,
2013-06-29 21:55:00,66.4,65.5,29.61,NE,43,2.0,2.0,97,0.00,,,0.11,Wunderground v.1.15,2013-06-30 01:55:00,
2013-06-29 22:01:00,66.4,65.5,29.61,NE,39,2.0,2.0,97,0.00,,,0.11,Wunderground v.1.15,2013-06-30 02:01:00,
2013-06-29 22:07:00,66.4,65.5,29.61,NE,49,2.0,3.0,97,0.00,,,0.11,Wunderground v.1.15,2013-06-30 02:07:00,
2013-06-29 22:13:00,66.5,65.6,29.62,NE,49,2.0,2.0,97,0.00,,,0.11,Wunderground v.1.15,2013-06-30 02:13:00,
2013-06-29 22:20:00,66.4,65.5,29.62,NE,37,2.0,4.0,97,0.00,,,0.11,Wunderground v.1.15,2013-06-30 02:20:00,
2013-06-29 22:26:00,66.2,65.3,29.63,ENE,59,2.0,4.0,97,0.00,,,0.11,Wunderground v.1.15,2013-06-30 02:26:00,
2013-06-29 22:32:00,66.2,65.3,29.63,NE,49,1.0,2.0,97,0.00,,,0.11,Wunderground v.1.15,2013-06-30 02:32:00,
2013-06-29 22:38:00,66.2,65.3,29.63,ENE,63,1.0,2.0,97,0.00,,,0.11,Wunderground v.1.15,2013-06-30 02:38:00,
2013-06-29 22:44:00,66.2,65.3,29.63,NE,54,1.0,2.0,97,0.00,,,0.11,Wunderground v.1.15,2013-06-30 02:44:00,
2013-06-29 22:50:00,66.2,65.3,29.63,NE,41,1.0,1.0,97,0.00,,,0.11,Wunderground v.1.15,2013-06-30 02:50:00,
2013-06-29 22:58:00,66.2,65.3,29.63,NE,46,1.0,4.0,97,0.00,,,0.11,Wunderground v.1.15,2013-06-30 02:58:00,
2013-06-29 23:06:00,66.2,65.3,29.64,NE,39,2.0,4.0,97,0.00,,,0.11,Wunderground v.1.15,2013-06-30 03:06:00,
2013-06-29 23:12:00,66.3,65.4,29.64,NE,49,1.0,4.0,97,0.00,,,0.11,Wunderground v.1.15,2013-06-30 03:12:00,
2013-06-29 23:18:00,66.2,65.3,29.63,NE,49,1.0,4.0,97,0.00,,,0.11,Wunderground v.1.15,2013-06-30 03:18:00,
2013-06-29 23:24:00,66.2,65.3,29.64,NE,47,1.0,4.0,97,0.00,,,0.11,Wunderground v.1.15,2013-06-30 03:24:00,
2013-06-29 23:30:00,66.2,65.3,29.63,NE,53,1.0,4.0,97,0.00,,,0.11,Wunderground v.1.15,2013-06-30 03:30:00,
2013-06-29 23:36:00,66.2,65.3,29.63,NE,47,2.0,4.0,97,0.00,,,0.11,Wunderground v.1.15,2013-06-30 03:36:00,
2013-06-29 23:41:00,66.1,65.2,29.64,NE,39,2.0,4.0,97,0.00,,,0.11,Wunderground v.1.15,2013-06-30 03:41:00,
2013-06-29 23:50:00,66.0,65.1,29.64,NE,53,2.0,4.0,97,0.00,,,0.11,Wunderground v.1.15,2013-06-30 03:50:00,
2013-06-29 23:58:00,66.0,65.1,29.64,NE,45,2.0,4.0,97,0.00,,,0.11,Wunderground v.1.15,2013-06-30 03:58:00,